Location: Lane
(33.5226°N, 79.8788°W)
Time: 01:55:43
(UTC+00:00)

Tiros 1 despin weight - Pass Details

Date: 10 October 2022
Orbit: 590 x 637 km, 48.2° (Epoch: 30 November)

Event Time Altitude Azimuth Distance (km) Brightness Sun altitude
Rises 02:39:04 0° 286° (WNW) 2,896 ? -46.5°
Enters shadow 02:39:32 - 283° (WNW) 2,747 ? -46.6°
Reaches altitude 10° 02:42:35 10° 258° (WSW) 1,996 - -47.2°
Maximum altitude 02:44:36 13° 232° (SW) 1,819 - -47.5°
Drops below altitude 10° 02:46:38 10° 205° (SSW) 2,001 - -47.9°
Sets 02:50:12 0° 177° (S) 2,911 - -48.5°
